Torna al catalogo

CBERS 4A

AttivoScienzaSSO
NORAD 44883·PAYLOAD·🇧🇷 Brazil🇨🇳 China

Lanciato Dec 20, 2019 da Taiyuan Satellite Launch Center

Loading…

Prossimi Passaggi (prossime 24 ore)

TLE

AggiornatoSource: Space-Track

Epoca: Sep 14, 2026, 15:36 UTC

1 44883U 19093E   26257.65000145  .00000407  00000-0  58756-4 0  9998
2 44883  98.0115 325.1346 0001924  51.0547 309.0836 14.81526651364321

Traccia CBERS 4A in tempo reale con AllMySat

Download on the App Store